User: anonymous   Login
Location: S�tio Afonso Gruber
(26.1760°S, 49.5250°W)
Time: 15:18:45
(UTC+00:00)
Language:

GOES 2 Rocket - Orbit

View from above orbital plane
View from above orbital plane
View from above satellite
View from above satellite

Ground track
Ground track

The orbit data is extracted from the following two-line orbital elements,

1 10062U 77048B   21136.30198311  .00000102  00000-0 -69179-5 0  9995
2 10062  28.4187 101.4192 0736484 213.4386 141.7491 13.36720474138071
Epoch (UTC): 16 May 2021 07:14:51
Eccentricity: 0.0736484
inclination: 28.4187°
perigee height: 569 km
apogee height: 1674 km
right ascension of ascending node: 101.4192°
argument of perigee: 213.4386°
revolutions per day: 13.36720474
mean anomaly at epoch: 141.7491°
orbit number at epoch: 13807

The dashed part of the orbit path shows where the satellite is in the earth's shadow,  

DLR